Location: Highridge
(54.0333°N, 114.1333°W)
Time: 05:19:59
(UTC+00:00)

SO-50 - Pass Details

Date: 06 December 2023
Orbit: 608 x 660 km, 64.6° (Epoch: 02 March)

Event Time Altitude Azimuth Distance (km) Brightness Sun altitude
Exits shadow 11:47:30 24° 46° (NE) 1,330 ? -32.6°
Drops below altitude 10° 11:49:23 10° 46° (NE) 2,046 ? -32.3°
Sets 11:51:40 0° 47° (NE) 2,950 ? -32.0°
